Regional Weather Roundup
Issued by NWS

Home | Current Version | Previous Version | Graphics & Text | Print | Product List | Glossary Off
Versions: 1 2 3 4 5 6 7 8 9 10 11 12 13 14 15 16 17 18 19 20 21 22 23 24 25 26 27 28 29 30 31 32 33 34 35 36 37 38 39 40 41 42 43 44 45 46 47 48 49 50

000
ASUS43 KDTX 302101
RWRMI
MICHIGAN HOURLY REGIONAL WEATHER ROUNDUP
NATIONAL WEATHER SERVICE DETROIT/PONTIAC MI
500 PM EDT SUN AUG 30 2015

NOTE: "FAIR" INDICATES FEW OR NO CLOUDS BELOW 12,000 FEET WITH NO
SIGNIFICANT WEATHER AND/OR OBSTRUCTION TO VISIBILITY.

MIZ047>049-052>055-059>063-066>070-074>076-081>083-302200-
SOUTHEAST LOWER MICHIGAN

CITY           SKY/WX    TMP DP  RH WIND       PRES   REMARKS
ADRIAN         PTSUNNY   83  68  60 W8        30.03S
ALMA           MOSUNNY   77  68  72 CALM      30.03F
ANN ARBOR      PTSUNNY   81  68  64 W7        30.02F
BAD AXE        CLOUDY    77  67  69 W9        30.03S
CARO           PTSUNNY   78  70  76 W6        30.02F
DETROIT CITY   PTSUNNY   82  68  62 SW10      30.00F
DETROIT        PTSUNNY   84  68  58 S8        30.01F
FLINT          PTSUNNY   82  68  62 W5        30.02F
GROSSE ILE     MOSUNNY   79  72  78 SE8       30.00F
HILLSDALE      PTSUNNY   79  71  75 W3        30.05S
HOWELL         MOSUNNY   81  67  61 W8        30.03S

CITY           SKY/WX    TMP DP  RH WIND       PRES   REMARKS
JACKSON        MOSUNNY   79  70  74 NW6       30.03F
LAMBERTVILLE   PTSUNNY   85  68  56 SW8       30.02F
LANSING        CLOUDY    77  68  73 W8        30.04S
LAPEER         PTSUNNY   81  67  62 W6        30.02F
MASON          PTSUNNY   78  65  63 W7        30.03F
MONROE         PTSUNNY   81  70  68 CALM      30.01F
MT. CLEMENS    MOSUNNY   79  69  70 SE10      29.99F
PONTIAC        PTSUNNY   80  68  66 W9        30.01F
PORT HOPE        N/A     72  67  84 NW5       30.01S
PORT HURON     MOSUNNY   79  68  69 SW3       30.01F
TRI CITIES     CLOUDY    77  67  71 W6        30.03F
MIDLAND        CLOUDY    76  66  71 SW3       30.01F
TROY           MOSUNNY   84  66  54 W9        30.02F
SAGINAW HB     MOSUNNY   79  68  69 W6        30.01F
$$
MIZ043>046-050>051-056>058-064>065-071>073-077>080-302200-
SOUTHWEST LOWER MICHIGAN

CITY           SKY/WX    TMP DP  RH WIND       PRES   REMARKS
BATTLE CREEK   PTSUNNY   77  67  71 W8        30.05F
BENTON HARBOR  PTSUNNY   72  65  78 W7        30.04F
BIG RAPIDS     PTSUNNY   76  66  71 SW7       30.03F
COLDWATER      MOSUNNY   79  70  73 NW6       30.04S
FREMONT        CLOUDY    74  66  75 CALM      30.03F HAZE
HOLLAND        CLOUDY    73  66  78 W7        30.05F
GRAND RAPIDS   PTSUNNY   78  67  68 SW13      30.03F
IONIA          CLOUDY    77  67  72 W6        30.03F
KALAMAZOO      PTSUNNY   77  67  71 W7        30.04F
LUDINGTON      SUNNY     72  65  76 W5        30.04S
MARSHALL       PTSUNNY   78  69  73 W7        30.03F
MOUNT PLEASANT CLOUDY    78  68  69 SW5       30.02F
MUSKEGON       MOSUNNY   76  65  68 W6        30.03F
SOUTH HAVEN    CLOUDY    73  65  78 W7        30.04F
$$
MIZ016>042-302200-
NORTHERN LOWER MICHIGAN

CITY           SKY/WX    TMP DP  RH WIND       PRES   REMARKS
ALPENA         MOSUNNY   80  61  52 SW6       29.99F
BEAVER ISLAND  SUNNY     69  62  77 SW12G20   30.00F
BELLAIRE       SUNNY     76  62  60 SW6       30.00F
CADILLAC       SUNNY     77  63  62 W5        30.03F
CHARLEVOIX     SUNNY     72  64  77 W8        30.03F
FRANKFORT      SUNNY     69  63  80 W10       30.02F
GAYLORD        MOSUNNY   77  60  55 SW9       30.02F
GRAYLING       MOSUNNY   76  62  60 SW6       30.02F
HARBOR SPRINGS SUNNY     72  64  75 SW7       30.00F
HOUGHTON LAKE  MOSUNNY   78  63  59 W3        30.03F
MANISTEE       SUNNY     70  61  73 SW9       30.03F
OSCODA         PTSUNNY   77  65  67 S13       29.99F
PELLSTON       SUNNY     75  62  64 SW8       30.00F
ROGERS CITY    MOSUNNY   73  64  73 NE5       30.00S
TRAVERSE CITY  MOSUNNY   78  63  59 W8        29.99F
$$
MIZ007>008-015-302200-
EASTERN UPPER MICHIGAN

CITY           SKY/WX    TMP DP  RH WIND       PRES   REMARKS
KINROSS        SUNNY     73  61  64 SW8G17    29.98F
MACKINAC ISLAN SUNNY     70  59  69 W10G17    29.99F
NEWBERRY       SUNNY     72  61  67 S10G21    29.96F
S. S. MARIE    SUNNY     75  61  61 SW15G22   29.96F
$$
MIZ004>006-011>014-085-302200-
CENTRAL UPPER MICHIGAN

CITY           SKY/WX    TMP DP  RH WIND       PRES   REMARKS
MANISTIQUE     SUNNY     68  62  81 S14       29.98S
ESCANABA       SUNNY     70  63  78 S16G22    29.95F
MENOMINEE      SUNNY     75  63  64 SW10      29.97F
SAWYER-GWINN   SUNNY     81  63  54 S15G21    29.94S
$$
MIZ001>003-009>011-084-302200-
WESTERN UPPER MICHIGAN

CITY           SKY/WX    TMP DP  RH WIND       PRES   REMARKS
IRON MOUNTAIN  MOSUNNY   81  61  50 SW10G17   29.95F
HOUGHTON       SUNNY     83  58  42 W10       29.87F
IRONWOOD       MOSUNNY   82  63  51 SW13      29.88S
$$

ABBREVIATIONS USED IN REMARKS
   TC - TEMPERATURE IN CELSIUS
  WCI - WIND CHILL INDEX
   HX - HEAT INDEX
  VSB - VISIBILITY




USA.gov is the U.S. government's official web portal to all federal, state and local government web resources and services.